World > North America > United States > Ohio > Diamond

Hourly Diamond, OH Regional Weather

Feedback E-mail the Weather

Quick WX

Diamond, OH Weather Maps

°F °C°F °C
Diamond Weather Map
UTC Time: 8/8/2022, 10:40
Your Time:

Diamond, OH Regional Weather

Expires:202208081100;;669852
ASUS41 KCLE 081012
RWRCLE
OHIO REGIONAL WEATHER ROUNDUP
NATIONAL WEATHER SERVICE WILMINGTON, OH
600 AM EDT MON AUG 08 2022

NOTE: "FAIR" INDICATES FEW OR NO CLOUDS BELOW 12,000 FEET WITH NO
SIGNIFICANT WEATHER AND/OR OBSTRUCTIONS TO VISIBILITY.


OHZ009>014-019>023-028>033-038-089-081100-
   NORTHEAST OHIO
  
CITY           SKY/WX    TMP DP  RH WIND       PRES   REMARKS
CLE-HOPKINS    LGT RAIN  75  71  87 SW10      30.00F                  
CLE-LAKEFRONT  CLOUDY    78  71  79 SW13      29.99F                  
CUY CO. ARPT   CLOUDY    76  71  84 MISG      30.03F                  
LORAIN-ELYRIA  LGT RAIN  74  70  87 SW13      30.03F                  
ASHTABULA      FAIR      72  70  93 S6        30.02F                  
AKRON-CANTON   LGT RAIN  74  70  87 SW8       30.06S                  
WOOSTER        MOCLDY    72  71  97 SW5       30.06S                  
MANSFIELD      LGT RAIN  72  70  93 W5        30.06F                  
YOUNGSTOWN     CLOUDY    72  70  93 SW7       30.05S                  
$$
 

SKY/WX - Weather  TMP - Temperature  DP - Dew Point  RH - Humidity
WIND - Wind Direction/Speed PRES - Barometric Pressure VSB - Visibility
WCI - Wind Chill Index E13G22 Wind - East Wind 13 mph/Gusts of 22 mph

Trending Headlines

Diamond Radar Loop



Diamond Quick Facts


National Two Day Weather Forecast


E-mail the Diamond Weather Forecast

Voice your opinion or tell us about page issues...